Weather History for KLRD - September, 2013

Change the Weather History Date:

Friday, September 20, 2013

  Actual Average Record
Temperature  
Mean Temperature 85 °F 82 °F  
Max Temperature 94 °F 92 °F 106 °F (1932)
Min Temperature 76 °F 72 °F 53 °F (1913)
Degree Days  
Heating Degree Days 0 0  
Month to date heating degree days 0 0  
Since 1 July heating degree days 0 0  
Cooling Degree Days 20 17  
Month to date cooling degree days 391 385  
Year to date cooling degree days 3796 3628  
Growing Degree Days 34 (Base 50)    
Moisture  
Dew Point 74 °F    
Average Humidity 82    
Maximum Humidity 97    
Minimum Humidity 52    
Precipitation  
Precipitation 0.01 in 0.08 in 0.93 in (2010)
Month to date precipitation 1.59 2.06  
Year to date precipitation 14.46 15.05  
Sea Level Pressure  
Sea Level Pressure 29.79 in    
Wind  
Wind Speed 9 mph (ESE)    
Max Wind Speed 22 mph    
Max Gust Speed 27 mph    
Visibility 10 miles    
Events      
T = Trace of Precipitation, MM = Missing Value Source: NWS Daily Summary

Daily Weather History Graph

Daily Weather History Graph

Search for Another Location

Airport or City:

Trip Planner

Search our weather history database for the weather conditions in past years. The results will help you decide how hot, cold, wet, or windy it might be!

Date:

Astronomy

Sep. 20, 2013 Rise Set
Actual Time 7:25 AM CDT 7:36 PM CDT
Civil Twilight 7:02 AM CDT 7:59 PM CDT
Nautical Twilight 6:34 AM CDT 8:26 PM CDT
Astronomical Twilight 6:07 AM CDT 8:54 PM CDT
Moon 8:24 PM CDT (9/20) 8:31 AM CDT (9/20)
Length of Visible Light 12h 57m
Length of Day
12h 10m
Full, 98% of the Moon is Illuminated
Sep 20
Full
Sep 26
Last Quarter
Oct 4
New
Oct 11
First Quarter
Oct 18
Full

Hourly Weather History & Observations

Time (CDT) Temp. Heat Index Dew Point Humidity Pressure Visibility Wind Dir Wind Speed Gust Speed Precip Events Conditions
12:56 AM 81.0 °F 87.3 °F 75.9 °F 85% 29.82 in 10.0 mi SE 9.2 mph - N/A   Overcast
1:56 AM 79.9 °F - 75.9 °F 88% 29.80 in 10.0 mi ESE 9.2 mph - N/A   Scattered Clouds
2:03 AM 80.6 °F 86.2 °F 75.2 °F 84% 29.83 in 10.0 mi ESE 9.2 mph - N/A   Mostly Cloudy
2:27 AM 78.8 °F - 75.2 °F 89% 29.83 in 10.0 mi ESE 6.9 mph - N/A   Scattered Clouds
2:44 AM 78.8 °F - 77.0 °F 94% 29.82 in 10.0 mi ESE 5.8 mph - N/A   Mostly Cloudy
2:56 AM 79.0 °F - 77.0 °F 94% 29.78 in 10.0 mi Calm Calm - N/A   Mostly Cloudy
3:41 AM 78.8 °F - 75.2 °F 89% 29.81 in 10.0 mi SE 9.2 mph - N/A   Mostly Cloudy
3:49 AM 78.8 °F - 75.2 °F 89% 29.81 in 10.0 mi SE 11.5 mph - N/A   Mostly Cloudy
3:56 AM 79.0 °F - 75.9 °F 90% 29.77 in 10.0 mi SE 10.4 mph - N/A   Mostly Cloudy
4:03 AM 78.8 °F - 75.2 °F 89% 29.81 in 10.0 mi SE 8.1 mph - N/A   Mostly Cloudy
4:56 AM 79.0 °F - 75.9 °F 90% 29.76 in 10.0 mi SSE 8.1 mph - N/A   Overcast
5:35 AM 78.8 °F - 75.2 °F 89% 29.79 in 10.0 mi SE 8.1 mph - N/A   Overcast
5:47 AM 78.8 °F - 75.2 °F 89% 29.78 in 10.0 mi SE 5.8 mph - N/A   Overcast
5:56 AM 79.0 °F - 75.9 °F 90% 29.75 in 10.0 mi SE 6.9 mph - N/A   Overcast
6:56 AM 79.0 °F - 75.9 °F 90% 29.75 in 10.0 mi SSE 5.8 mph - N/A   Overcast
7:02 AM 78.8 °F - 75.2 °F 89% 29.79 in 10.0 mi SSE 5.8 mph - N/A   Overcast
7:10 AM 78.8 °F - 75.2 °F 89% 29.79 in 10.0 mi SE 5.8 mph - N/A   Overcast
7:14 AM 78.8 °F - 75.2 °F 89% 29.79 in 10.0 mi SSE 6.9 mph - N/A   Overcast
7:25 AM 78.8 °F - 75.2 °F 89% 29.80 in 10.0 mi SE 5.8 mph - N/A   Overcast
7:32 AM 78.8 °F - 75.2 °F 89% 29.80 in 10.0 mi SSE 4.6 mph - N/A   Mostly Cloudy
7:56 AM 79.0 °F - 75.9 °F 90% 29.77 in 10.0 mi Calm Calm - N/A   Overcast
8:07 AM 78.8 °F - 75.2 °F 89% 29.81 in 10.0 mi SSE 5.8 mph - N/A   Overcast
8:56 AM 79.9 °F - 75.9 °F 88% 29.78 in 10.0 mi SE 6.9 mph - N/A   Overcast
9:56 AM 81.9 °F 88.2 °F 74.8 °F 79% 29.78 in 10.0 mi SSE 9.2 mph - N/A   Overcast
10:56 AM 83.8 °F 91.4 °F 74.8 °F 74% 29.79 in 10.0 mi SSW 5.8 mph - N/A   Mostly Cloudy
11:31 AM 84.2 °F 92.3 °F 75.2 °F 74% 29.82 in 10.0 mi SSE 8.1 mph - 0.00 in   Overcast
11:56 AM 84.9 °F 92.1 °F 73.9 °F 69% 29.78 in 10.0 mi South 4.6 mph - 0.00 in   Overcast
12:56 PM 88.0 °F 96.5 °F 73.9 °F 63% 29.77 in 10.0 mi South 6.9 mph - N/A   Mostly Cloudy
1:56 PM 90.9 °F 100.0 °F 73.9 °F 57% 29.74 in 10.0 mi Variable 5.8 mph - N/A   Mostly Cloudy
2:56 PM 92.8 °F 102.8 °F 73.9 °F 54% 29.71 in 10.0 mi Variable 3.5 mph - N/A   Mostly Cloudy
3:56 PM 92.8 °F 101.5 °F 72.9 °F 52% 29.70 in 10.0 mi WNW 4.6 mph - N/A   Mostly Cloudy
4:56 PM 86.9 °F 95.9 °F 74.8 °F 67% 29.70 in 10.0 mi NNW 18.4 mph 27.6 mph N/A   Mostly Cloudy
5:56 PM 83.8 °F 90.8 °F 73.9 °F 72% 29.72 in 10.0 mi North 16.1 mph - N/A   Mostly Cloudy
6:56 PM 81.9 °F 87.0 °F 72.9 °F 74% 29.73 in 10.0 mi North 15.0 mph 21.9 mph N/A   Scattered Clouds
7:56 PM 79.9 °F - 72.0 °F 77% 29.75 in 10.0 mi North 13.8 mph - 0.00 in   Overcast
8:56 PM 77.9 °F - 72.0 °F 82% 29.78 in 10.0 mi North 13.8 mph - 0.00 in   Overcast
9:35 PM 78.8 °F - 71.6 °F 78% 29.82 in 10.0 mi NNE 18.4 mph 25.3 mph N/A   Overcast
9:45 PM 78.8 °F - 71.6 °F 78% 29.83 in 10.0 mi North 18.4 mph 26.5 mph N/A   Overcast
9:56 PM 77.0 °F - 70.9 °F 81% 29.81 in 10.0 mi North 15.0 mph - N/A   Overcast
10:56 PM 75.9 °F - 73.9 °F 94% 29.80 in 10.0 mi North 10.4 mph - 0.00 in   Mostly Cloudy
11:27 PM 75.2 °F - 71.6 °F 89% 29.85 in 10.0 mi North 11.5 mph - 0.00 in   Overcast
11:39 PM 75.2 °F - 71.6 °F 89% 29.85 in 10.0 mi North 13.8 mph - 0.00 in   Overcast
11:56 PM 75.9 °F - 70.0 °F 82% 29.82 in 10.0 mi North 17.3 mph - 0.00 in   Overcast